[[{"header":{"parameterUnit":"m.s-1","parameterCategory":1,"la1":30.2991,"la2":30.254,"lo1":-89.0895,"lo2":-89.0444,"dy":0.0017,"dx":0.0017,"nx":28,"ny":28,"refTime":"2023-11-15T09:00:00:Z","depth":0,"parameterNumber":2,"parameterNumberName":"U-component_of_WINDS"},"data":[0,0,0,0,0,0,0,0,0,0,0,0,0,0,0,0,0,0,0,0,0,0,0,0,0,0,0,0,0,0,0,0,0,0,0,0,0,0,0,0,0,0,0,0,0,0,0,0,0,0,0,0,0,0,0,0,0,0,-3.9345,-3.9347,0,-3.9559,-3.9561,-3.9563,-3.954,-3.9536,-3.9533,-3.9529,-3.9759,-3.9768,-3.9777,0,0,0,0,0,0,0,0,0,0,0,0,0,-3.8926,-3.8933,-3.9345,-3.9347,-3.935,-3.9558,-3.9561,-3.9564,-3.954,-3.9536,-3.9532,-3.9528,-3.9756,-3.9766,-3.9778,0,0,0,0,0,0,0,0,0,0,0,0,0,-3.9121,-3.8936,-3.9344,-3.9363,-3.9367,-3.9558,-3.9561,-3.9565,-3.9541,-3.9536,-3.9531,-3.9526,-3.9752,-3.9765,-3.9779,-3.9968,0,0,-3.9822,-3.9828,0,0,0,0,0,0,0,0,-3.911,-3.9136,-3.9358,-3.9362,-3.9367,-3.9517,-3.9497,-3.97,-3.9542,-3.9475,-3.9529,-3.9523,-3.9683,-3.9702,-3.9754,-3.9979,-3.9989,-3.9823,-3.9831,-3.9837,-3.9841,0,0,0,0,0,0,0,-3.9096,-3.9127,-3.943,-3.9361,-3.9366,-3.9364,-3.9386,-3.9536,-3.9606,-3.9481,-3.9479,-3.9504,-3.9685,-3.9741,-3.9759,-3.9992,-3.9823,-3.9835,-3.9844,-3.9849,-4.0386,-4.0392,0,0,0,0,0,0,-3.9077,-3.9116,-3.9423,-3.9436,-3.9222,-3.9376,-3.94,-3.9474,-3.9604,-3.9619,-3.9509,-3.9503,-3.9719,-3.9743,-3.9767,-3.9999,-3.9837,-3.985,-3.9858,-4.038,-4.0387,-4.0394,0,0,0,0,0,0,-3.9068,-3.9104,-3.9414,-3.9276,-3.9315,-3.9388,-3.9471,-3.9481,-3.9537,-3.9625,-3.9638,-3.9552,-3.9716,-3.9748,-3.9918,-4.0007,-3.9857,-3.9869,-4.0373,-4.0382,-4.0391,-4.0463,0,0,0,0,0,0,-3.9056,-3.9101,-3.9171,-3.9277,-3.9322,-3.9559,-3.9477,-3.9489,-3.956,-3.9554,-3.967,-3.9684,-3.9715,-3.9898,-3.9932,-4.0023,-3.988,-4.0366,-4.0377,-4.0388,-4.0453,-4.0473,-4.0491,0,0,0,0,0,-3.9041,-3.9185,-3.9175,-3.9212,-3.9411,-3.9564,-3.959,-3.9619,-3.9567,-3.964,-3.9697,-3.968,-3.9991,-3.9915,-3.9954,-4.0051,-4.036,-4.0374,-4.0387,-4.0445,-4.0469,-4.049,0,0,0,0,0,0,-3.9091,-3.9199,-3.9189,-3.9371,-3.9458,-3.9559,-3.9652,-3.9644,-3.975,-3.9741,-3.9776,-3.9802,-3.9975,-4.003,-3.9944,-4.0242,-4.0169,-4.0191,-4.02,-4.0224,-4.0242,-4.0227,-3.9892,0,0,0,0,0,-3.9122,-3.9234,-3.9324,-3.9476,-3.952,-3.9579,-3.9646,-3.9661,-3.9754,-3.9792,-3.9861,-3.9955,-4.0074,-4.0151,-4.0266,-4.046,-4.0487,-4.0546,-4.0565,-4.058,-4.0599,-4.0709,-4.0737,-4.0437,-4.0437,-4.0437,0,0,-3.919,-3.9263,-3.9332,-3.9488,-3.9557,-3.9676,-3.961,-3.9738,-3.9827,-3.9812,-3.9977,-4.0032,-4.0139,-4.0323,-4.0408,-4.0374,-4.0687,-4.0596,-4.0608,-4.0619,-4.0726,-4.0754,-4.0779,-4.0446,-4.0445,-4.0443,0,0,-3.9374,-3.9439,-3.9574,-3.9644,-3.9748,-3.9786,-3.9819,-3.9922,-3.9956,-4.0121,-4.0113,-4.0222,-4.0425,-4.0502,-4.0568,-4.0782,-4.0773,-4.0819,-4.0917,-4.1024,-4.1048,-4.1069,-4.1149,-4.1176,-4.0837,-4.0837,-4.0837,0,-3.9446,-3.9621,-3.9645,-3.9774,-3.9844,-3.9833,-3.9972,-4.004,-4.0178,-4.0228,-4.0187,-4.0443,-4.0514,-4.0717,-4.0769,-4.0822,-4.0863,-4.0807,-4.1042,-4.1063,-4.1084,-4.116,-4.1189,-4.0842,-4.0842,-4.0841,-4.0841,0,-3.9706,-3.9827,-3.9924,-4.0054,-4.0135,-4.0269,-4.0316,-4.0396,-4.0404,-4.0448,-4.0618,-4.0703,-4.0835,-4.0884,-4.0894,-4.109,-4.1066,-4.1033,-4.0961,-4.1117,-4.1189,-4.1218,-4.085,-4.0848,-4.0846,-4.0845,0,0,-3.9929,-4.0069,-4.0105,-4.0165,-4.0279,-4.0376,-4.051,-4.0636,-4.0705,-4.0801,-4.0917,-4.1089,-4.1059,-4.1134,-4.1153,-4.1247,-4.1414,-4.1203,-4.1206,-4.1242,-4.1639,-4.1665,-4.1698,-4.1407,-4.1413,-4.1417,-4.1631,0,-4.0126,-4.036,-4.0386,-4.0596,-4.0711,-4.0702,-4.0819,-4.0904,-4.0949,-4.1055,-4.1106,-4.1228,-4.1178,-4.1224,-4.1315,-4.1374,-4.1495,-4.1359,-4.152,-4.1525,-4.1496,-4.1736,-4.1763,-4.1961,-4.1659,-4.1664,-4.1668,0,-4.0388,-4.0488,-4.0709,-4.0809,-4.0858,-4.0962,-4.1081,-4.1181,-4.1279,-4.1305,-4.1388,-4.1395,-4.1538,-4.1458,-4.1658,-4.1564,-4.1632,-4.1671,-4.1679,-4.1698,-4.1608,-4.1764,-4.2025,-4.2055,-4.1712,-4.1708,-4.1705,0,-4.0532,-4.0722,-4.0879,-4.093,-4.105,-4.1124,-4.1178,-4.127,-4.1345,-4.1449,-4.1499,-4.162,-4.1687,-4.1782,-4.1823,-4.1761,-4.2022,-4.1945,-4.2051,-4.2051,-4.2109,-4.2105,-4.2387,-4.2147,-4.2147,-4.2146,-4.2146,0,-4.0751,-4.0887,-4.0946,-4.1043,-4.1196,-4.1226,-4.1378,-4.143,-4.1512,-4.1621,-4.1621,-4.1725,-4.1771,-4.1884,-4.1917,-4.2079,-4.2109,-4.2137,-4.2145,-4.2139,-4.2136,-4.2185,-4.2174,-4.2154,-4.2153,-4.2151,-4.215,0,-4.0939,-4.0982,-4.1154,-4.1252,-4.128,-4.139,-4.1476,-4.1572,-4.1614,-4.1753,-4.1788,-4.1857,-4.1989,-4.2038,-4.22,-4.2222,-4.2411,-4.2406,-4.2377,-4.238,-4.2485,-4.2475,-4.2811,-4.2858,-4.2584,-4.2587,-4.2589,0,-4.1077,-4.1181,-4.129,-4.1362,-4.1418,-4.1534,-4.1609,-4.1643,-4.1723,-4.1842,-4.1925,-4.2055,-4.2161,-4.2374,-4.2441,-4.2566,-4.2566,-4.2675,-4.2585,-4.2576,-4.2571,-4.2566,-4.2578,-4.2693,-4.2695,-4.2698,-4.2699,0,-4.1319,-4.1335,-4.1442,-4.1558,-4.1647,-4.174,-4.1831,-4.1891,-4.1939,-4.2029,-4.2162,-4.2245,-4.2409,-4.254,-4.2668,-4.2728,-4.2724,-4.2727,-4.2759,-4.2755,-4.2735,-4.275,-4.2426,-4.272,-4.2718,-4.2716,-4.2715,-4.2714,-4.1488,-4.1581,-4.1673,-4.1793,-4.1864,-4.1949,-4.2044,-4.2097,-4.2208,-4.2342,-4.2356,-4.2501,-4.2598,-4.2769,-4.2834,-4.2951,-4.2922,-4.2967,-4.2979,-4.2991,-4.3,-4.2713,-4.2974,-4.2973,-4.2973,-4.2972,-4.2972,0,-4.1733,-4.179,-4.19,-4.2026,-4.2121,-4.2104,-4.2204,-4.2286,-4.2412,-4.2501,-4.2605,-4.276,-4.2888,-4.2964,-4.3093,-4.3172,-4.3174,-4.3205,-4.3202,-4.3216,-4.3017,-4.2977,-4.3202,-4.3202,-4.3202,-4.3202,-4.3202,-4.3202,-4.1871,-4.2028,-4.2056,-4.225,-4.2308,-4.2446,-4.2505,-4.2585,-4.2657,-4.2828,-4.2933,-4.298,-4.3066,-4.3201,-4.3319,-4.3339,-4.3388,-4.3423,-4.344,-4.3253,-4.323,-4.3207,-4.3171,-4.3432,-4.3432,-4.3631,-4.3632,-4.3634]},{"header":{"parameterUnit":"m.s-1","parameterCategory":1,"la1":30.2991,"la2":30.254,"lo1":-89.0895,"lo2":-89.0444,"dy":0.0017,"dx":0.0017,"nx":28,"ny":28,"refTime":"2023-11-15T09:00:00:Z","depth":0,"parameterNumber":3,"parameterNumberName":"V-component_of_WINDS"},"data":[0,0,0,0,0,0,0,0,0,0,0,0,0,0,0,0,0,0,0,0,0,0,0,0,0,0,0,0,0,0,0,0,0,0,0,0,0,0,0,0,0,0,0,0,0,0,0,0,0,0,0,0,0,0,0,0,0,0,-4.7592,-4.7591,0,-4.7458,-4.7457,-4.7455,-4.7284,-4.7281,-4.7278,-4.7275,-4.7135,-4.7134,-4.7133,0,0,0,0,0,0,0,0,0,0,0,0,0,-4.7698,-4.7697,-4.7593,-4.7591,-4.7589,-4.7459,-4.7457,-4.7455,-4.7284,-4.7281,-4.7277,-4.7274,-4.7136,-4.7134,-4.7133,0,0,0,0,0,0,0,0,0,0,0,0,0,-4.7617,-4.7697,-4.7593,-4.7488,-4.7478,-4.7459,-4.7457,-4.7454,-4.7285,-4.7281,-4.7276,-4.7273,-4.7136,-4.7134,-4.7133,-4.7205,0,0,-4.7127,-4.7127,0,0,0,0,0,0,0,0,-4.7622,-4.7613,-4.7505,-4.7495,-4.7483,-4.7383,-4.7442,-4.7371,-4.7286,-4.7358,-4.7275,-4.7271,-4.7221,-4.7212,-4.7196,-4.7198,-4.7192,-4.7127,-4.7126,-4.7125,-4.7125,0,0,0,0,0,0,0,-4.7628,-4.7618,-4.7539,-4.7504,-4.7491,-4.7447,-4.7431,-4.7428,-4.7314,-4.7351,-4.7339,-4.7325,-4.7214,-4.7198,-4.7191,-4.719,-4.7127,-4.7126,-4.7125,-4.7124,-4.7244,-4.7248,0,0,0,0,0,0,-4.7649,-4.7624,-4.7544,-4.7535,-4.7544,-4.7449,-4.7431,-4.742,-4.7314,-4.7294,-4.7329,-4.7318,-4.7203,-4.7194,-4.7186,-4.7262,-4.7125,-4.7124,-4.7123,-4.724,-4.7245,-4.7249,0,0,0,0,0,0,-4.7652,-4.7644,-4.7549,-4.7576,-4.7561,-4.7451,-4.744,-4.7419,-4.7403,-4.7297,-4.7275,-4.7333,-4.7199,-4.7188,-4.7201,-4.7255,-4.7123,-4.7121,-4.7235,-4.7241,-4.7247,-4.7418,0,0,0,0,0,0,-4.7656,-4.7646,-4.7673,-4.7578,-4.756,-4.7569,-4.7444,-4.742,-4.7401,-4.7385,-4.7295,-4.7277,-4.7195,-4.7205,-4.72,-4.725,-4.712,-4.7229,-4.7238,-4.7245,-4.7407,-4.7429,-4.7448,0,0,0,0,0,-4.766,-4.7726,-4.7675,-4.7666,-4.7592,-4.7572,-4.7561,-4.7467,-4.7406,-4.7432,-4.7363,-4.7279,-4.7251,-4.7208,-4.72,-4.7252,-4.7226,-4.7235,-4.7245,-4.7398,-4.7425,-4.7448,0,0,0,0,0,0,-4.7829,-4.7712,-4.7654,-4.7691,-4.7643,-4.7543,-4.7573,-4.7499,-4.7467,-4.7453,-4.7337,-4.7318,-4.7345,-4.7299,-4.7254,-4.7315,-4.7225,-4.7234,-4.7344,-4.7369,-4.739,-4.74,-4.7119,0,0,0,0,0,-4.7871,-4.7866,-4.7763,-4.7805,-4.7784,-4.7684,-4.7671,-4.7603,-4.7548,-4.7526,-4.7459,-4.7408,-4.7387,-4.7375,-4.735,-4.7399,-4.7377,-4.7431,-4.7452,-4.7469,-4.7478,-4.7499,-4.7521,-4.7281,-4.7281,-4.728,0,0,-4.7957,-4.7892,-4.7895,-4.7838,-4.7792,-4.7788,-4.7667,-4.7668,-4.7664,-4.7526,-4.7534,-4.7484,-4.7419,-4.745,-4.746,-4.7413,-4.7539,-4.7481,-4.7496,-4.7495,-4.7511,-4.7534,-4.7554,-4.7287,-4.7286,-4.7285,0,0,-4.8111,-4.8062,-4.8092,-4.8049,-4.7982,-4.7914,-4.7922,-4.7833,-4.7794,-4.7801,-4.7697,-4.769,-4.7657,-4.7614,-4.7589,-4.7727,-4.7648,-4.7722,-4.783,-4.7853,-4.7872,-4.7888,-4.7936,-4.7955,-4.7731,-4.7732,-4.7732,0,-4.8226,-4.8217,-4.8116,-4.8124,-4.8101,-4.7977,-4.8005,-4.7968,-4.7897,-4.7884,-4.7831,-4.7787,-4.7734,-4.7754,-4.7788,-4.7771,-4.7775,-4.7732,-4.7877,-4.7892,-4.7906,-4.7951,-4.797,-4.7741,-4.774,-4.7739,-4.7738,0,-4.8361,-4.8356,-4.8388,-4.8323,-4.8303,-4.8322,-4.8223,-4.8215,-4.8149,-4.8087,-4.8095,-4.8028,-4.7987,-4.7986,-4.7921,-4.7996,-4.7968,-4.7899,-4.7806,-4.794,-4.798,-4.7997,-4.7754,-4.7751,-4.7748,-4.7746,0,0,-4.8617,-4.8496,-4.851,-4.8478,-4.8396,-4.8389,-4.8402,-4.8362,-4.8358,-4.8313,-4.8319,-4.8294,-4.8228,-4.82,-4.8128,-4.8148,-4.8261,-4.8075,-4.8071,-4.8111,-4.8338,-4.8391,-4.8413,-4.8209,-4.8211,-4.8214,-4.8344,0,-4.8755,-4.877,-4.868,-4.8718,-4.8712,-4.8594,-4.8605,-4.8555,-4.8497,-4.8482,-4.8417,-4.8401,-4.8317,-4.8298,-4.8313,-4.8245,-4.8305,-4.8234,-4.8212,-4.8213,-4.8232,-4.8434,-4.849,-4.8616,-4.8359,-4.8361,-4.8363,0,-4.8918,-4.8883,-4.8922,-4.8836,-4.883,-4.8841,-4.8798,-4.8786,-4.8726,-4.8682,-4.8651,-4.8569,-4.8574,-4.8487,-4.849,-4.8444,-4.843,-4.8395,-4.8397,-4.8391,-4.8296,-4.8433,-4.8654,-4.8673,-4.8387,-4.8385,-4.8384,0,-4.9101,-4.9062,-4.908,-4.9057,-4.8958,-4.8969,-4.8928,-4.8864,-4.8847,-4.8808,-4.8795,-4.8758,-4.8737,-4.8709,-4.8619,-4.8564,-4.8634,-4.8539,-4.8596,-4.8599,-4.8616,-4.8616,-4.8837,-4.8608,-4.8608,-4.8608,-4.8607,0,-4.9264,-4.9292,-4.9161,-4.9172,-4.9199,-4.9095,-4.9124,-4.9072,-4.9016,-4.9014,-4.8909,-4.8909,-4.8791,-4.8777,-4.8707,-4.872,-4.8712,-4.8676,-4.8656,-4.8685,-4.8689,-4.8673,-4.8662,-4.8613,-4.8612,-4.8611,-4.861,0,-4.9472,-4.9385,-4.9397,-4.9303,-4.928,-4.9304,-4.9223,-4.9228,-4.9164,-4.9163,-4.9156,-4.9055,-4.9034,-4.8941,-4.8897,-4.885,-4.8887,-4.8849,-4.8907,-4.8895,-4.8957,-4.8952,-4.9175,-4.9199,-4.8957,-4.8959,-4.8961,0,-4.9581,-4.96,-4.9508,-4.95,-4.9464,-4.9452,-4.9433,-4.9331,-4.9316,-4.9249,-4.9263,-4.9233,-4.9203,-4.9174,-4.9096,-4.9062,-4.9022,-4.9103,-4.9016,-4.9044,-4.9022,-4.9022,-4.9023,-4.9121,-4.9124,-4.9127,-4.9129,0,-4.9784,-4.9741,-4.9718,-4.9682,-4.9663,-4.9628,-4.9588,-4.9586,-4.9472,-4.946,-4.9438,-4.9415,-4.9371,-4.9342,-4.9295,-4.925,-4.9171,-4.9157,-4.9168,-4.9197,-4.923,-4.9212,-4.8957,-4.9152,-4.915,-4.9148,-4.9147,-4.9146,-4.9945,-4.9956,-4.9894,-4.9872,-4.9831,-4.9796,-4.9796,-4.9733,-4.9712,-4.9669,-4.9609,-4.9595,-4.9533,-4.9461,-4.9424,-4.9409,-4.9365,-4.9381,-4.9385,-4.9391,-4.9405,-4.9233,-4.94,-4.94,-4.9399,-4.9398,-4.9398,0,-5.0142,-5.0097,-5.0078,-5.0025,-5.0008,-4.9936,-4.9887,-4.9877,-4.9866,-4.9816,-4.9789,-4.9763,-4.9735,-4.9655,-4.9618,-4.9622,-4.9584,-4.9616,-4.9614,-4.9605,-4.9447,-4.9441,-4.9647,-4.9646,-4.9646,-4.9646,-4.9646,-4.9646,-5.0243,-5.0258,-5.0207,-5.02,-5.0153,-5.0138,-5.0117,-5.0083,-5.0043,-5.0018,-4.9995,-4.9943,-4.9881,-4.9839,-4.9809,-4.9786,-4.9777,-4.982,-4.9786,-4.964,-4.9616,-4.9593,-4.9587,-4.982,-4.982,-4.9944,-4.9945,-4.9946]}]]